Location: Medlow Airstrip Trail, Medlow Bath NSW 2780, Australia
(33.6682°S, 150.3233°E)
Time: 13:49:30
(UTC+11:00)

Explorer 7 - Pass Details

Date: 16 September 2019
Orbit: 485 x 680 km, 50.3° (Epoch: 19 October)

Event Time Altitude Azimuth Distance (km) Brightness Sun altitude
Rises 18:57:43 0° 230° (SW) 2,573 11.3 -14.8°
Reaches altitude 10° 18:59:53 10° 232° (SW) 1,691 10.2 -15.2°
Maximum altitude 19:03:41 75° 317° (NW) 521 6.7 -16.0°
Enters shadow 19:05:49 25° 38° (NE) 1,047 7.8 -16.5°
